Location: Middle Street
(51.7167°N, 0.0333°E)
Time: 23:51:18
(UTC+00:00)

Cosmos 1354 Rocket - Pass Details

Date: 20 January 2021
Orbit: 764 x 783 km, 74.0° (Epoch: 01 March)

Event Time Altitude Azimuth Distance (km) Brightness Sun altitude
Rises 17:19:12 0° 194° (SSW) 3,253 7.8 -7.9°
Reaches altitude 10° 17:21:34 10° 192° (SSW) 2,331 7.0 -8.2°
Maximum altitude 17:26:50 67° 110° (ESE) 848 4.1 -9.0°
Drops below altitude 10° 17:32:08 10° 29° (NNE) 2,352 6.1 -9.8°
Enters shadow 17:33:38 - 28° (NNE) 2,926 6.6 -10.0°
